TimeCDT,TemperatureF,Dew PointF,Humidity,Sea Level PressureIn,VisibilityMPH,Wind Direction,Wind SpeedMPH,Gust SpeedMPH,PrecipitationIn,Events,Conditions,WindDirDegrees,DateUTC
12:13 AM,59.0,55.4,88,30.01,10.0,Calm,Calm,-,N/A,,Clear,0,2013-06-30 05:13:00
12:34 AM,59.0,53.6,82,30.01,10.0,Calm,Calm,-,N/A,,Clear,0,2013-06-30 05:34:00
12:53 AM,59.0,53.6,82,30.02,10.0,Calm,Calm,-,N/A,,Clear,0,2013-06-30 05:53:00
1:14 AM,57.2,53.6,88,30.02,10.0,Calm,Calm,-,N/A,,Clear,0,2013-06-30 06:14:00
1:34 AM,57.2,53.6,88,30.02,10.0,SW,3.5,-,N/A,,Clear,220,2013-06-30 06:34:00
1:53 AM,57.2,53.6,88,30.02,10.0,Calm,Calm,-,N/A,,Clear,0,2013-06-30 06:53:00
2:13 AM,57.2,53.6,88,30.02,10.0,SSW,3.5,-,N/A,,Clear,200,2013-06-30 07:13:00
2:33 AM,57.2,53.6,88,30.03,10.0,SSW,3.5,-,N/A,,Clear,200,2013-06-30 07:33:00
2:54 AM,55.4,53.6,94,30.03,10.0,South,4.6,-,N/A,,Clear,190,2013-06-30 07:54:00
3:13 AM,55.4,51.8,88,30.03,10.0,South,3.5,-,N/A,,Clear,190,2013-06-30 08:13:00
3:34 AM,55.4,51.8,88,30.03,10.0,South,4.6,-,N/A,,Clear,190,2013-06-30 08:34:00
3:53 AM,55.4,51.8,88,30.04,10.0,SW,4.6,-,N/A,,Clear,220,2013-06-30 08:53:00
4:13 AM,53.6,51.8,94,30.04,10.0,South,4.6,-,N/A,,Clear,190,2013-06-30 09:13:00
4:34 AM,55.4,51.8,88,30.04,10.0,South,4.6,-,N/A,,Clear,190,2013-06-30 09:34:00
4:53 AM,53.6,51.8,94,30.05,10.0,South,5.8,-,N/A,,Clear,190,2013-06-30 09:53:00
5:13 AM,53.6,51.8,94,30.05,10.0,South,4.6,-,N/A,,Clear,190,2013-06-30 10:13:00
5:34 AM,53.6,51.8,94,30.06,10.0,South,4.6,-,N/A,,Clear,190,2013-06-30 10:34:00
5:53 AM,53.6,51.8,94,30.06,10.0,SSW,5.8,-,N/A,,Clear,200,2013-06-30 10:53:00
6:13 AM,53.6,50.0,88,30.07,10.0,SSW,6.9,-,N/A,,Clear,200,2013-06-30 11:13:00
6:34 AM,55.4,51.8,88,30.07,10.0,SSW,5.8,-,N/A,,Clear,200,2013-06-30 11:34:00
6:53 AM,55.4,51.8,88,30.07,10.0,South,5.8,-,N/A,,Clear,170,2013-06-30 11:53:00
7:13 AM,57.2,53.6,88,30.07,10.0,South,5.8,-,N/A,,Clear,190,2013-06-30 12:13:00
7:34 AM,60.8,55.4,82,30.08,10.0,SSW,4.6,-,N/A,,Clear,200,2013-06-30 12:34:00
7:53 AM,62.6,55.4,77,30.08,10.0,South,3.5,-,N/A,,Clear,190,2013-06-30 12:53:00
8:13 AM,64.4,57.2,77,30.08,10.0,South,3.5,-,N/A,,Clear,170,2013-06-30 13:13:00
8:33 AM,64.4,57.2,77,30.08,10.0,South,4.6,-,N/A,,Clear,170,2013-06-30 13:33:00
8:54 AM,66.2,57.2,73,30.09,10.0,South,4.6,-,N/A,,Clear,170,2013-06-30 13:54:00
9:13 AM,68.0,57.2,68,30.09,10.0,SSE,3.5,-,N/A,,Clear,160,2013-06-30 14:13:00
9:33 AM,69.8,57.2,64,30.09,10.0,SSE,3.5,-,N/A,,Clear,160,2013-06-30 14:33:00
9:54 AM,71.6,57.2,60,30.08,10.0,SSE,4.6,-,N/A,,Clear,160,2013-06-30 14:54:00
10:13 AM,73.4,55.4,53,30.08,10.0,Calm,Calm,-,N/A,,Clear,0,2013-06-30 15:13:00
10:34 AM,73.4,55.4,53,30.08,10.0,Calm,Calm,-,N/A,,Clear,0,2013-06-30 15:34:00
10:53 AM,75.2,55.4,50,30.08,10.0,Calm,Calm,-,N/A,,Clear,0,2013-06-30 15:53:00
11:13 AM,75.2,53.6,47,30.08,10.0,Calm,Calm,-,N/A,,Clear,0,2013-06-30 16:13:00
11:34 AM,75.2,55.4,50,30.08,10.0,East,3.5,-,N/A,,Clear,100,2013-06-30 16:34:00
11:53 AM,73.4,55.4,53,30.09,10.0,ESE,3.5,-,N/A,,Clear,110,2013-06-30 16:53:00
12:13 PM,73.4,55.4,53,30.08,10.0,ESE,4.6,-,N/A,,Clear,110,2013-06-30 17:13:00
12:33 PM,75.2,53.6,47,30.08,10.0,ESE,5.8,-,N/A,,Clear,110,2013-06-30 17:33:00
12:53 PM,77.0,53.6,44,30.08,10.0,ESE,4.6,-,N/A,,Clear,110,2013-06-30 17:53:00
1:14 PM,78.8,55.4,44,30.08,10.0,ESE,4.6,-,N/A,,Clear,110,2013-06-30 18:14:00
1:33 PM,78.8,53.6,42,30.08,10.0,ESE,4.6,-,N/A,,Clear,120,2013-06-30 18:33:00
1:53 PM,78.8,48.2,34,30.08,10.0,ESE,4.6,-,N/A,,Clear,110,2013-06-30 18:53:00
2:14 PM,80.6,51.8,37,30.08,10.0,ESE,4.6,-,N/A,,Clear,110,2013-06-30 19:14:00
2:33 PM,80.6,53.6,39,30.08,10.0,East,3.5,-,N/A,,Clear,100,2013-06-30 19:33:00
2:54 PM,80.6,50.0,34,30.07,10.0,East,4.6,-,N/A,,Clear,100,2013-06-30 19:54:00
3:13 PM,80.6,44.6,28,30.07,10.0,ESE,6.9,-,N/A,,Clear,110,2013-06-30 20:13:00
3:33 PM,80.6,53.6,39,30.07,10.0,East,5.8,-,N/A,,Clear,100,2013-06-30 20:33:00
3:54 PM,82.4,48.2,30,30.07,10.0,East,5.8,-,N/A,,Clear,100,2013-06-30 20:54:00
4:13 PM,80.6,53.6,39,30.07,10.0,ESE,6.9,-,N/A,,Clear,110,2013-06-30 21:13:00
4:34 PM,80.6,53.6,39,30.07,10.0,East,4.6,-,N/A,,Clear,100,2013-06-30 21:34:00
4:54 PM,80.6,57.2,45,30.07,10.0,East,5.8,-,N/A,,Clear,100,2013-06-30 21:54:00
5:13 PM,75.2,62.6,65,30.08,10.0,East,8.1,-,N/A,,Clear,90,2013-06-30 22:13:00
5:34 PM,77.0,66.2,69,30.08,10.0,East,5.8,-,N/A,,Clear,90,2013-06-30 22:34:00
5:53 PM,75.2,62.6,65,30.08,10.0,East,6.9,-,N/A,,Clear,90,2013-06-30 22:53:00
6:14 PM,78.8,60.8,54,30.08,10.0,East,4.6,-,N/A,,Clear,90,2013-06-30 23:14:00
6:34 PM,77.0,62.6,61,30.08,10.0,East,4.6,-,N/A,,Clear,90,2013-06-30 23:34:00
6:53 PM,73.4,62.6,69,30.08,10.0,North,3.5,-,N/A,,Clear,10,2013-06-30 23:53:00
7:13 PM,71.6,64.4,78,30.08,10.0,North,3.5,-,N/A,,Clear,10,2013-07-01 00:13:00
7:34 PM,73.4,60.8,65,30.08,10.0,Calm,Calm,-,N/A,,Clear,0,2013-07-01 00:34:00
7:53 PM,73.4,59.0,61,30.08,10.0,North,4.6,-,N/A,,Clear,350,2013-07-01 00:53:00
8:13 PM,71.6,60.8,69,30.08,10.0,North,3.5,-,N/A,,Clear,360,2013-07-01 01:13:00
8:34 PM,73.4,53.6,50,30.08,10.0,Calm,Calm,-,N/A,,Clear,0,2013-07-01 01:34:00
8:53 PM,73.4,48.2,41,30.08,10.0,Calm,Calm,-,N/A,,Clear,0,2013-07-01 01:53:00
9:13 PM,71.6,51.8,50,30.09,10.0,Calm,Calm,-,N/A,,Clear,0,2013-07-01 02:13:00
9:34 PM,71.6,55.4,57,30.10,10.0,Calm,Calm,-,N/A,,Clear,0,2013-07-01 02:34:00
9:53 PM,71.6,53.6,53,30.10,10.0,NE,3.5,-,N/A,,Clear,40,2013-07-01 02:53:00
10:13 PM,69.8,55.4,60,30.11,10.0,Calm,Calm,-,N/A,,Clear,0,2013-07-01 03:13:00
10:34 PM,69.8,55.4,60,30.11,10.0,Calm,Calm,-,N/A,,Clear,0,2013-07-01 03:34:00
10:53 PM,69.8,57.2,64,30.11,10.0,Calm,Calm,-,N/A,,Clear,0,2013-07-01 03:53:00
11:14 PM,68.0,60.8,78,30.12,10.0,Calm,Calm,-,N/A,,Clear,0,2013-07-01 04:14:00
11:33 PM,68.0,57.2,68,30.12,10.0,Calm,Calm,-,N/A,,Clear,0,2013-07-01 04:33:00
11:53 PM,68.0,60.8,78,30.12,10.0,Calm,Calm,-,N/A,,Clear,0,2013-07-01 04:53:00